Regional Weather Roundup
Issued by NWS Northern Indiana

Home | Current Version | Previous Version | Text Only | Print | Product List | Glossary Off
Versions: 1 2 3 4 5 6 7 8 9 10 11 12 13 14 15 16 17 18 19 20 21 22 23 24 25 26 27 28 29 30 31 32 33 34 35 36 37 38 39 40 41 42 43 44 45 46 47 48 49 50

000
ASUS43 KIWX 201810
RWRIWX

KIWX WEATHER ROUNDUP
NATIONAL WEATHER SERVICE NORTHERN INDIANA
200 PM EDT FRI APR 20 2018

NOTE: "FAIR" INDICATES FEW OR NO CLOUDS BELOW 12,000 FEET WITH NO
SIGNIFICANT WEATHER AND/OR OBSTRUCTIONS TO VISIBILITY.

* THESE STATIONS ARE NOT UNDER NWS QUALITY CONTROL. THEY ALSO MAY NOT
  REPORT WEATHER SUCH AS PRECIPITATION OR FOG.

INZ001>027-201900-
NORTHERN INDIANA

CITY           SKY/WX    TMP DP  RH WIND       PRES   REMARKS
GARY*          MOSUNNY   54  19  26 N7        30.51F
VALPARAISO     FAIR      61  22  22 N7        30.49F
6HR MIN TEMP:  35; 6HR MAX TEMP:  61;

MICHIGAN CITY* FAIR      54  28  37 N7        30.51F
LAPORTE*       FAIR      56  19  24 N8        30.50F
6HR MIN TEMP:  31; 6HR MAX TEMP:  56;

KNOX*          FAIR      55  23  28 N6        30.49F
SOUTH BEND     FAIR      56  18  22 N9G17     30.50F
6HR MIN TEMP:  29; 6HR MAX TEMP:  56;

ELKHART*       FAIR      59  18  20 NW6G17    30.48F
GOSHEN         FAIR      54  21  27 VRB3G18   30.48F
6HR MIN TEMP:  29; 6HR MAX TEMP:  55;

MONTICELLO*    FAIR      57  14  18 NE5       30.48F
6HR MIN TEMP:  26; 6HR MAX TEMP:  55;

LOGANSPORT*    FAIR      55  19  24 N9        30.49F
ROCHESTER*     FAIR      57  19  23 N7        30.49F
WARSAW*        FAIR      54  23  30 NE8       30.48F
AUBURN*        FAIR      54  21  28 N7        30.48F
FORT WAYNE     FAIR      56  22  26 N8        30.48F
6HR MIN TEMP:  33; 6HR MAX TEMP:  57;

HUNTINGTON*    FAIR      54  21  28 N7        30.47F
6HR MIN TEMP:  31; 6HR MAX TEMP:  54;

PERU/GRISSOM   MOSUNNY   57  14  18 N8        30.47S
MARION*        FAIR      53  22  29 CALM      30.49S
6HR MIN TEMP:  28; 6HR MAX TEMP:  53;


$$
INZ028>050-201900-
CENTRAL INDIANA

CITY           SKY/WX    TMP DP  RH WIND       PRES   REMARKS
LAFAYETTE      FAIR      56  21  25 N8        30.48F
6HR MIN TEMP:  27; 6HR MAX TEMP:  56;

KOKOMO*        FAIR      57  25  29 N9        30.49F
6HR MIN TEMP:  32; 6HR MAX TEMP:  57;

MUNCIE*        FAIR      55  20  25 VRB5      30.47F
6HR MIN TEMP:  32; 6HR MAX TEMP:  57;

INDIANAPOLIS   FAIR      56  16  20 NE12      30.47F
6HR MIN TEMP:  35; 6HR MAX TEMP:  57;


$$
MIZ043>046-050>051-056>058-064>065-071>073-077>080-201900-
SOUTHWEST LOWER MICHIGAN

CITY           SKY/WX    TMP DP  RH WIND       PRES   REMARKS
BATTLE CREEK   FAIR      56  18  22 VRB6      30.48F
6HR MIN TEMP:  32; 6HR MAX TEMP:  56;

BENTON HARBOR  FAIR      49  23  36 W9        30.52F
6HR MIN TEMP:  28; 6HR MAX TEMP:  51;

COLDWATER*     FAIR      54  19  25 N7        30.48S
6HR MIN TEMP:  32; 6HR MAX TEMP:  54;

HILLSDALE*     FAIR      54  18  24 NW10      30.45F
HOLLAND        FAIR      52  26  36 W9        30.51F
6HR MIN TEMP:  33; 6HR MAX TEMP:  54;

GRAND RAPIDS   FAIR      57  23  26 W10       30.48F
6HR MIN TEMP:  37; 6HR MAX TEMP:  57;

KALAMAZOO      FAIR      57  15  19 NW8G18    30.49F
6HR MIN TEMP:  32; 6HR MAX TEMP:  57;

STURGIS*       FAIR      55  18  23 N5        30.48F
6HR MIN TEMP:  38; 6HR MAX TEMP:  56;

THREE RIVERS*  FAIR      55  19  24 NE6       30.49F
6HR MIN TEMP:  32; 6HR MAX TEMP:  55;


$$
OHZ001>008-015>018-024>025-201900-
NORTHWEST OHIO

CITY           SKY/WX    TMP DP  RH WIND       PRES   REMARKS
WAUSEON*       FAIR      55  18  22 N12G18    30.46F
DEFIANCE       FAIR      54  23  30 NW7G16    30.47F
6HR MIN TEMP:  34; 6HR MAX TEMP:  55;

FINDLAY        FAIR      54  20  26 N8        30.46F
6HR MIN TEMP:  33; 6HR MAX TEMP:  56;

TOLEDO EXPRESS FAIR      55  20  25 N9G16     30.47F
6HR MIN TEMP:  35; 6HR MAX TEMP:  56;

TOLEDO METCALF FAIR      54  22  28 MISG      30.48F
6HR MIN TEMP:  34; 6HR MAX TEMP:  55;

LIMA           FAIR      51  24  34 W8        30.46F
6HR MIN TEMP:  34; 6HR MAX TEMP:  53;


$$
AND FOR LAKE MICHIGAN COASTAL AND OPEN LAKE BUOY OBSERVATIONS

STATION/POSITION TEMP    WIND        PRES    VSBY  WAVE
                 AIR SEA DIR/SP/G                  HT/PER
                 (F)     (DEG/KT/KT) (MB)    (MI)  (FT/S)
CALUMET HARBOR    41      50/  6/  7 1032.7F
MICHIGAN CITY     44     340/  4/  5   N/A
BURNS HARBOR      40      30/  4/  5 1033.9F
SAINT JOSEPH      42     340/  4/  5 1033.5

$$
&&



USA.gov is the U.S. government's official web portal to all federal, state and local government web resources and services.